EW2244 Weather Reports


time (UTC)temp
C
wind
direction
speed
KPH
gust
KPH
rain 1hr
cm
rain 24hr
cm
rain mn
cm
humidity
%
barometer
mb
20260506210120 11 169 0.0 4.8 0.00 11.51 2.92 91 1011.2
20260506205127 11 170 0.0 4.8 0.10 11.51 2.92 91 1011.2
20260506204132 11 19 1.6 6.4 0.71 11.51 2.92 91 1011.1
20260506203123 12 288 0.0 3.2 0.99 11.51 2.92 90 1011.0
20260506202127 12 290 1.6 6.4 0.99 11.51 2.92 90 1011.0
20260506201130 11 310 0.0 3.2 0.99 11.51 2.92 91 1010.9
20260506200136 12 311 1.6 4.8 0.99 11.51 2.92 91 1010.9
20260506195129 12 26 0.0 3.2 0.89 11.40 2.90 90 1010.7
20260506194134 12 26 0.0 1.6 0.30 10.79 2.74 89 1010.6
20260506193141 12 26 0.0 3.2 0.00 10.49 2.67 88 1010.5
20260506192125 12 26 1.6 4.8 0.00 10.49 2.67 87 1010.2
20260506191125 12 26 3.2 14.5 0.00 10.49 2.67 85 1010.1
20260506190130 12 22 3.2 11.3 0.00 10.49 2.67 85 1009.8
20260506185132 12 355 0.0 8.0 0.00 10.49 2.67 84 1009.7
20260506184131 13 43 0.0 8.0 0.00 10.49 2.67 81 1009.4
20260506183120 13 30 3.2 17.7 0.00 10.49 2.67 80 1009.0
20260506182124 13 355 3.2 14.5 0.00 10.49 2.67 80 1008.9
20260506181129 13 90 1.6 8.0 0.00 10.49 2.67 79 1009.0
20260506180133 13 27 0.0 6.4 0.00 10.49 2.67 81 1009.0
20260506175142 13 25 1.6 3.2 0.00 10.59 2.67 80 1008.5
20260506174126 13 25 1.6 8.0 0.00 10.59 2.67 78 1008.4
20260506173134 13 348 1.6 6.4 0.00 10.59 2.67 75 1008.4
20260506172139 14 355 0.0 8.0 0.00 10.59 2.67 75 1008.4
20260506171144 15 44 3.2 9.7 0.00 10.59 2.67 72 1008.4
20260506170132 15 37 1.6 4.8 0.00 10.59 2.67 70 1008.3
20260506165137 16 18 0.0 4.8 0.00 10.59 2.67 71 1008.1
20260506164142 16 11 3.2 6.4 0.00 10.59 2.67 69 1008.0
20260506163126 16 82 1.6 6.4 0.00 10.59 2.67 72 1007.8
20260506162137 15 74 0.0 6.4 0.00 10.59 2.67 72 1007.9
20260506161121 15 360 3.2 9.7 0.00 10.59 2.67 71 1007.7
20260506160127 14 19 3.2 17.7 0.00 10.59 2.67 74 1007.4
20260506155132 13 44 6.4 14.5 0.00 10.59 2.67 73 1007.3
20260506154121 13 55 3.2 12.9 0.00 10.59 2.67 73 1007.6
20260506153127 13 32 4.8 16.1 0.00 10.59 2.67 73 1007.7
20260506152152 14 139 6.4 16.1 0.00 10.59 2.67 72 1007.7
20260506151137 15 44 4.8 9.7 0.00 10.59 2.67 72 1007.8
20260506150126 15 53 3.2 12.9 0.00 10.59 2.67 69 1007.8
20260506145129 16 317 4.8 16.1 0.00 10.59 2.67 71 1007.9
20260506144134 16 36 3.2 8.0 0.00 10.59 2.67 74 1007.8
20260506143139 16 36 3.2 16.1 0.00 10.59 2.67 72 1007.9
20260506142127 16 23 3.2 9.7 0.00 10.59 2.67 74 1007.7
20260506141133 16 44 4.8 12.9 0.00 10.59 2.67 75 1007.6
20260506140159 16 22 3.2 9.7 0.00 10.59 2.67 78 1007.8
20260506135123 16 348 1.6 9.7 0.00 10.69 2.67 78 1008.0
20260506134132 16 13 3.2 9.7 0.00 10.69 2.67 76 1008.1
20260506133159 15 29 3.2 9.7 0.00 10.69 2.67 81 1008.1
20260506132201 15 28 1.6 8.0 0.00 10.69 2.67 83 1008.2
20260506131126 15 338 3.2 16.1 0.00 10.69 2.67 81 1008.3
20260506130130 15 53 6.4 14.5 0.00 10.69 2.67 80 1008.3
20260506125140 15 42 3.2 11.3 0.00 10.69 2.67 83 1008.3
20260506124126 14 48 4.8 11.3 0.00 10.69 2.67 85 1008.2
20260506123132 14 80 4.8 14.5 0.00 10.69 2.67 87 1008.1
20260506122138 13 64 6.4 16.1 0.00 10.69 2.67 91 1008.0
20260506121147 13 30 6.4 14.5 0.30 10.69 2.67 91 1008.1
20260506120133 12 22 4.8 17.7 4.90 10.69 2.67 93 1008.1
20260506115139 12 59 4.8 9.7 7.19 10.79 2.67 97 1008.1
20260506114125 10 9 3.2 12.9 7.59 10.79 2.67 96 1008.1
20260506113137 10 40 0.0 9.7 7.59 10.79 2.67 94 1008.3
20260506112123 10 62 3.2 9.7 7.49 10.69 2.64 93 1008.2
20260506111128 11 48 1.6 24.1 7.70 10.49 2.59 90 1007.8
20260506110141 12 252 3.2 17.7 3.51 5.89 1.42 90 1008.2
20260506105146 13 258 1.6 6.4 0.89 3.40 0.76 95 1007.8
20260506104135 13 63 1.6 12.9 0.79 3.30 0.74 94 1007.5
20260506103200 13 161 1.6 12.9 0.79 3.30 0.74 95 1007.7
20260506102124 13 87 3.2 8.0 0.79 3.30 0.74 95 1007.8
20260506101128 13 137 1.6 12.9 0.30 2.79 0.61 94 1007.8
20260506100158 13 63 3.2 12.9 0.00 2.49 0.53 94 1007.7
20260506095141 13 51 6.4 14.5 0.00 2.79 0.53 94 1007.8
20260506094126 13 119 4.8 12.9 0.00 2.79 0.53 96 1007.8
20260506093153 13 92 6.4 16.1 0.00 2.79 0.53 95 1007.6
20260506092139 12 81 4.8 14.5 0.00 2.79 0.53 96 1007.6
20260506091127 12 146 4.8 16.1 0.00 2.79 0.53 96 1007.5
20260506090133 12 13 4.8 11.3 0.00 2.79 0.53 96 1007.5
20260506085158 12 86 4.8 19.3 0.10 3.30 0.53 95 1007.6
20260506084124 12 86 6.4 19.3 0.20 3.30 0.53 95 1007.6
20260506083134 12 9 6.4 19.3 0.30 3.30 0.53 96 1007.8
20260506082140 12 148 1.6 12.9 0.41 3.30 0.53 96 1007.8
20260506081127 12 140 0.0 9.7 0.41 3.30 0.53 96 1007.9
20260506080135 12 141 0.0 11.3 0.41 3.30 0.53 96 1008.0
20260506073134 12 127 1.6 6.4 0.10 3.71 0.46 96 1008.3
20260506072139 12 126 0.0 3.2 0.00 3.61 0.43 96 1008.3
20260506071128 12 213 0.0 3.2 0.00 3.61 0.43 96 1008.3
20260506070132 12 147 0.0 6.4 0.00 3.61 0.43 97 1008.6
20260506062155 12 82 1.6 4.8 0.10 5.41 0.43 97 1008.5
20260506061138 11 95 0.0 1.6 0.30 5.41 0.43 97 1008.5
20260506060138 11 5 0.0 1.6 0.51 5.41 0.43 96 1008.4
20260506051124 11 5 0.0 1.6 0.71 6.40 0.33 96 1008.7
20260506050134 11 5 0.0 1.6 0.61 6.30 0.30 96 1008.6
20260506045121 11 5 0.0 1.6 0.41 6.81 0.25 96 1008.8
20260506044127 11 5 0.0 1.6 0.41 6.81 0.25 96 1008.8
20260506043133 11 5 0.0 0.0 0.41 6.81 0.25 96 1009.0
20260506042124 11 5 0.0 0.0 0.20 6.60 0.20 96 1009.2
20260506041130 11 5 0.0 1.6 0.00 6.40 0.15 96 1009.3
20260506040135 11 5 0.0 1.6 0.10 6.40 0.15 96 1009.3
20260506035126 11 5 0.0 1.6 0.51 6.60 0.15 96 1009.2
20260506034133 11 5 0.0 1.6 0.61 6.60 0.15 96 1009.5
20260506033120 11 5 0.0 3.2 0.61 6.60 0.15 96 1009.4
20260506032147 11 5 0.0 4.8 0.61 6.60 0.15 96 1009.5
20260506031132 11 5 0.0 3.2 0.61 6.60 0.15 96 1009.6
20260506030123 11 5 0.0 0.0 0.51 6.50 0.13 96 1009.8
20260506025128 11 5 0.0 0.0 0.10 6.10 0.03 96 1010.1
20260506024134 11 5 0.0 0.0 0.00 5.99 0.00 96 1010.2
20260506023126 11 5 0.0 3.2 0.00 5.99 0.00 96 1010.3
20260506022131 11 5 0.0 0.0 0.00 5.99 0.00 96 1010.4
20260506021137 11 5 0.0 3.2 0.00 5.99 0.00 96 1010.4
20260506020123 11 5 0.0 1.6 0.00 5.99 0.00 96 1010.4
20260506015130 11 5 0.0 1.6 0.00 5.99 0.00 96 1010.5
20260506014156 11 5 0.0 0.0 0.00 5.99 0.00 96 1010.6
20260506013121 11 5 0.0 0.0 0.00 5.99 0.00 96 1010.7
20260506012127 11 5 0.0 0.0 0.00 5.99 0.00 96 1010.7
20260506011134 11 5 0.0 0.0 0.00 5.99 0.00 96 1010.9
20260506010122 11 5 0.0 0.0 0.00 5.99 0.00 96 1011.0
20260506005126 11 5 0.0 0.0 0.00 5.99 0.00 96 1011.1
20260506004130 11 5 0.0 1.6 0.00 5.99 0.00 96 1011.1
20260506003157 11 5 0.0 0.0 0.00 5.99 0.00 96 1011.4
20260506002147 11 5 0.0 0.0 0.00 5.99 0.00 96 1011.4
20260506001132 11 5 0.0 3.2 0.00 5.99 0.00 96 1011.4
20260506000140 11 5 0.0 3.2 0.00 5.99 0.00 96 1011.4
20260505235125 11 5 0.0 1.6 0.00 5.99 0.00 96 1011.5
20260505234156 11 5 0.0 1.6 0.00 5.99 0.00 96 1011.7
20260505233200 11 5 0.0 1.6 0.00 5.99 0.00 96 1011.9
20260505232125 11 5 0.0 0.0 0.00 5.99 0.00 96 1012.0
20260505231153 11 5 0.0 3.2 0.00 5.99 0.00 96 1011.9
20260505230139 11 5 0.0 0.0 0.00 5.99 0.00 96 1012.2
20260505225129 11 5 0.0 0.0 0.00 5.99 0.00 96 1012.1
20260505224157 11 5 0.0 0.0 0.00 5.99 0.00 96 1012.4
20260505223141 11 5 0.0 0.0 0.00 5.99 0.00 96 1012.4
20260505222127 11 5 0.0 0.0 0.00 5.99 0.00 96 1012.4
20260505221136 11 5 0.0 1.6 0.00 5.99 0.00 96 1012.3
20260505220143 11 5 0.0 4.8 0.00 5.99 0.00 96 1012.3
20260505215129 11 5 1.6 6.4 0.00 5.99 1.52 96 1012.4
20260505214135 11 11 0.0 6.4 0.00 5.99 1.52 96 1012.5
20260505213158 11 11 0.0 3.2 0.00 5.99 1.52 96 1012.6
20260505212124 11 11 0.0 1.6 0.00 5.99 1.52 96 1012.7
20260505211129 11 11 0.0 1.6 0.00 5.99 1.52 96 1012.9
20260505210128 11 11 0.0 1.6 0.00 5.99 1.52 96 1012.9